When you browse on this site, cookies collect data to enhance your experience and personalize the content and advertising you see.
Visit our Privacy Policy to learn more. By continuing to use the site, you agree to this use of cookies and data.
  • In Österreich
  • Länderverzeichnis
  • Für 7 Tage
  • Wassertemperatur
  • Wetterkarte
  • News
  • Widgets
  • user-avatar
    Anmelden

    Stündliche Wetter Bremen

    Heute, 29 Mai, Freitag

    Zeit Temperatur Niederschläge Wind Luftdruck Luftfeuchtigkeit
    00:00 +7°C° 0 mm 2 m/S 773 mmHg 95%
    01:00 +7°C° 0 mm 2 m/S 773 mmHg 96%
    02:00 +7°C° 0 mm 2 m/S 773 mmHg 95%
    03:00 +7°C° 0 mm 2 m/S 773 mmHg 95%
    04:00 +7°C° 0 mm 1 m/S 772 mmHg 94%
    05:00 +9°C° 0 mm 1 m/S 772 mmHg 90%
    06:00 +11°C° 0 mm 1 m/S 772 mmHg 85%
    07:00 +12°C° 0 mm 1 m/S 772 mmHg 81%
    08:00 +14°C° 0 mm 1 m/S 772 mmHg 74%
    09:00 +15°C° 0 mm 2 m/S 772 mmHg 67%
    10:00 +17°C° 0 mm 2 m/S 772 mmHg 59%
    11:00 +18°C° 0 mm 2 m/S 772 mmHg 55%
    12:00 +19°C° 0 mm 2 m/S 771 mmHg 50%
    13:00 +19°C° 0 mm 2 m/S 771 mmHg 46%
    14:00 +20°C° 0 mm 2 m/S 771 mmHg 46%
    15:00 +20°C° 0 mm 2 m/S 770 mmHg 47%
    16:00 +20°C° 0 mm 2 m/S 770 mmHg 47%
    17:00 +19°C° 0 mm 2 m/S 770 mmHg 56%
    18:00 +18°C° 0 mm 3 m/S 770 mmHg 66%
    19:00 +15°C° 0 mm 4 m/S 769 mmHg 75%
    20:00 +14°C° 0 mm 3 m/S 769 mmHg 79%
    21:00 +12°C° 0 mm 3 m/S 770 mmHg 84%
    22:00 +10°C° 0 mm 3 m/S 770 mmHg 88%
    23:00 +10°C° 0 mm 3 m/S 770 mmHg 89%

    Morgen, 30 Mai, Samstag

    Zeit Temperatur Niederschläge Wind Luftdruck Luftfeuchtigkeit
    00:00 +9°C° 0 mm 3 m/S 770 mmHg 90%
    01:00 +9°C° 0 mm 3 m/S 770 mmHg 91%
    02:00 +9°C° 0 mm 2 m/S 770 mmHg 91%
    03:00 +8°C° 0 mm 2 m/S 770 mmHg 91%
    04:00 +8°C° 0 mm 2 m/S 770 mmHg 90%
    05:00 +9°C° 0 mm 2 m/S 770 mmHg 86%
    06:00 +10°C° 0 mm 2 m/S 770 mmHg 82%
    07:00 +13°C° 0 mm 2 m/S 770 mmHg 78%
    08:00 +14°C° 0 mm 2 m/S 770 mmHg 72%
    09:00 +16°C° 0 mm 2 m/S 770 mmHg 65%
    10:00 +18°C° 0 mm 2 m/S 770 mmHg 59%
    11:00 +19°C° 0 mm 2 m/S 769 mmHg 56%
    12:00 +19°C° 0 mm 2 m/S 769 mmHg 52%
    13:00 +20°C° 0 mm 2 m/S 769 mmHg 49%
    14:00 +20°C° 0.1 mm 2 m/S 769 mmHg 54%
    15:00 +19°C° 0.1 mm 3 m/S 769 mmHg 58%
    16:00 +19°C° 0.1 mm 3 m/S 768 mmHg 63%
    17:00 +18°C° 0.2 mm 3 m/S 768 mmHg 70%
    18:00 +17°C° 0.2 mm 3 m/S 768 mmHg 76%
    19:00 +16°C° 0.2 mm 3 m/S 768 mmHg 83%
    20:00 +14°C° 0 mm 3 m/S 768 mmHg 86%
    21:00 +13°C° 0 mm 2 m/S 768 mmHg 88%
    22:00 +12°C° 0 mm 2 m/S 768 mmHg 91%
    23:00 +10°C° 0 mm 2 m/S 768 mmHg 91%

    übermorgen, 31 Mai, Sonntag

    Zeit Temperatur Niederschläge Wind Luftdruck Luftfeuchtigkeit
    00:00 +10°C° 0 mm 2 m/S 768 mmHg 92%
    01:00 +9°C° 0 mm 2 m/S 768 mmHg 93%
    02:00 +9°C° 0 mm 2 m/S 769 mmHg 92%
    03:00 +8°C° 0 mm 2 m/S 769 mmHg 92%
    04:00 +7°C° 0 mm 2 m/S 769 mmHg 91%
    05:00 +8°C° 0 mm 2 m/S 769 mmHg 88%
    06:00 +10°C° 0 mm 2 m/S 769 mmHg 84%
    07:00 +12°C° 0 mm 2 m/S 769 mmHg 81%
    08:00 +12°C° 0 mm 3 m/S 769 mmHg 75%
    09:00 +14°C° 0 mm 3 m/S 769 mmHg 68%
    10:00 +17°C° 0 mm 4 m/S 769 mmHg 62%
    11:00 +18°C° 0 mm 4 m/S 769 mmHg 61%
    12:00 +19°C° 0 mm 5 m/S 769 mmHg 59%
    13:00 +19°C° 0 mm 5 m/S 769 mmHg 58%
    14:00 +19°C° 0 mm 5 m/S 768 mmHg 57%
    15:00 +19°C° 0 mm 6 m/S 768 mmHg 57%
    16:00 +19°C° 0 mm 6 m/S 768 mmHg 57%
    17:00 +19°C° 0 mm 6 m/S 768 mmHg 62%
    18:00 +17°C° 0 mm 5 m/S 768 mmHg 67%
    19:00 +17°C° 0 mm 4 m/S 768 mmHg 71%
    20:00 +14°C° 0 mm 4 m/S 768 mmHg 74%
    21:00 +12°C° 0 mm 4 m/S 769 mmHg 77%
    22:00 +11°C° 0 mm 3 m/S 769 mmHg 80%
    23:00 +10°C° 0 mm 3 m/S 769 mmHg 83%

    1 Juni, Montag

    Zeit Temperatur Niederschläge Wind Luftdruck Luftfeuchtigkeit
    00:00 +9°C° 0 mm 3 m/S 769 mmHg 86%
    01:00 +8°C° 0 mm 3 m/S 769 mmHg 89%
    02:00 +8°C° 0 mm 3 m/S 769 mmHg 89%
    03:00 +7°C° 0 mm 3 m/S 769 mmHg 90%
    04:00 +7°C° 0 mm 3 m/S 769 mmHg 91%
    05:00 +8°C° 0 mm 3 m/S 769 mmHg 88%
    06:00 +9°C° 0 mm 3 m/S 769 mmHg 84%
    07:00 +11°C° 0 mm 3 m/S 769 mmHg 80%
    08:00 +13°C° 0 mm 3 m/S 769 mmHg 77%
    09:00 +14°C° 0 mm 3 m/S 769 mmHg 73%
    10:00 +17°C° 0 mm 3 m/S 769 mmHg 69%
    11:00 +18°C° 0 mm 3 m/S 768 mmHg 65%
    12:00 +20°C° 0 mm 3 m/S 768 mmHg 61%
    13:00 +21°C° 0 mm 3 m/S 768 mmHg 57%
    14:00 +21°C° 0 mm 3 m/S 768 mmHg 58%
    15:00 +22°C° 0 mm 3 m/S 767 mmHg 58%
    16:00 +22°C° 0 mm 3 m/S 767 mmHg 58%
    17:00 +21°C° 0 mm 3 m/S 767 mmHg 64%
    18:00 +20°C° 0 mm 3 m/S 767 mmHg 70%
    19:00 +20°C° 0 mm 3 m/S 767 mmHg 76%
    20:00 +18°C° 0 mm 3 m/S 767 mmHg 78%
    21:00 +17°C° 0 mm 3 m/S 767 mmHg 81%
    22:00 +15°C° 0 mm 4 m/S 767 mmHg 84%
    23:00 +13°C° 0 mm 3 m/S 767 mmHg 87%

    2 Juni, Dienstag

    Zeit Temperatur Niederschläge Wind Luftdruck Luftfeuchtigkeit
    00:00 +12°C° 0 mm 3 m/S 767 mmHg 91%
    01:00 +11°C° 0 mm 3 m/S 767 mmHg 94%
    02:00 +11°C° 0 mm 3 m/S 766 mmHg 94%
    03:00 +10°C° 0 mm 2 m/S 766 mmHg 94%
    04:00 +10°C° 0 mm 2 m/S 766 mmHg 95%
    05:00 +12°C° 0 mm 2 m/S 766 mmHg 91%
    06:00 +14°C° 0 mm 2 m/S 766 mmHg 87%
    07:00 +15°C° 0 mm 2 m/S 766 mmHg 84%
    08:00 +17°C° 0 mm 3 m/S 766 mmHg 78%
    09:00 +19°C° 0 mm 3 m/S 765 mmHg 72%
    10:00 +21°C° 0 mm 3 m/S 765 mmHg 66%
    11:00 +22°C° 0 mm 3 m/S 765 mmHg 62%
    12:00 +24°C° 0 mm 3 m/S 764 mmHg 59%
    13:00 +24°C° 0 mm 3 m/S 764 mmHg 56%
    14:00 +24°C° 0 mm 3 m/S 764 mmHg 56%
    15:00 +24°C° 0 mm 2 m/S 763 mmHg 57%
    16:00 +24°C° 0 mm 2 m/S 763 mmHg 58%
    17:00 +23°C° 0 mm 2 m/S 762 mmHg 63%
    18:00 +21°C° 0 mm 2 m/S 762 mmHg 69%
    19:00 +21°C° 0 mm 2 m/S 762 mmHg 74%
    20:00 +19°C° 0 mm 2 m/S 761 mmHg 76%
    21:00 +17°C° 0 mm 2 m/S 761 mmHg 79%
    22:00 +16°C° 0 mm 2 m/S 761 mmHg 82%
    23:00 +15°C° 0 mm 2 m/S 761 mmHg 84%

    3 Juni, Mittwoch

    Zeit Temperatur Niederschläge Wind Luftdruck Luftfeuchtigkeit
    00:00 +14°C° 0 mm 2 m/S 761 mmHg 86%
    01:00 +14°C° 0 mm 2 m/S 760 mmHg 88%
    02:00 +13°C° 0 mm 2 m/S 760 mmHg 89%
    03:00 +13°C° 0 mm 2 m/S 760 mmHg 90%
    04:00 +13°C° 0 mm 2 m/S 759 mmHg 91%
    05:00 +14°C° 0 mm 2 m/S 759 mmHg 88%
    06:00 +14°C° 0 mm 3 m/S 759 mmHg 84%
    07:00 +16°C° 0 mm 3 m/S 758 mmHg 81%
    08:00 +18°C° 0 mm 3 m/S 758 mmHg 76%
    09:00 +19°C° 0 mm 3 m/S 758 mmHg 71%
    10:00 +21°C° 0 mm 3 m/S 758 mmHg 66%
    11:00 +22°C° 0.3 mm 3 m/S 757 mmHg 65%
    12:00 +24°C° 0.3 mm 3 m/S 757 mmHg 63%
    13:00 +24°C° 0.3 mm 2 m/S 756 mmHg 62%
    14:00 +24°C° 0.9 mm 2 m/S 756 mmHg 66%
    15:00 +23°C° 0.9 mm 2 m/S 756 mmHg 70%
    16:00 +21°C° 0.9 mm 2 m/S 755 mmHg 74%
    17:00 +20°C° 0.3 mm 3 m/S 755 mmHg 79%
    18:00 +19°C° 0.3 mm 3 m/S 755 mmHg 84%
    19:00 +18°C° 0.3 mm 3 m/S 754 mmHg 89%
    20:00 +16°C° 0.2 mm 3 m/S 754 mmHg 91%
    21:00 +14°C° 0.2 mm 3 m/S 754 mmHg 93%
    22:00 +13°C° 0.2 mm 3 m/S 754 mmHg 95%
    23:00 +12°C° 0.2 mm 3 m/S 754 mmHg 95%
    Mehr zeigen